Location: Home
(42.5358°N, 72.7383°W)
Time: 15:32:51
(UTC-05:00)

BEESAT 2 - Visible Passes

Search period start: 19 January 2022 00:00
Search period end: 29 January 2022 00:00
Orbit: 498 x 513 km, 64.9° (Epoch: 19 January)

Date Brightness Start Highest point End Pass type
(mag) Time Alt. Az. Time Alt. Az. Time Alt. Az.
19 Jan ? 18:09:54 10° WNW 18:13:09 26° WSW 18:16:22 10° S visible
20 Jan ? 17:50:53 10° NW 17:54:11 27° WSW 17:57:29 10° S visible
21 Jan ? 17:31:51 10° NW 17:35:14 29° WSW 17:38:34 10° S visible
25 Jan ? 06:23:30 10° S 06:26:50 28° ESE 06:30:10 10° NE visible
26 Jan ? 06:04:33 10° S 06:07:48 26° ESE 06:11:06 10° ENE visible
27 Jan ? 05:45:35 10° S 05:48:46 25° ESE 05:51:59 10° ENE visible
28 Jan ? 05:26:36 10° SSE 05:29:43 23° ESE 05:32:51 10° ENE visible
